[[{"header":{"parameterUnit":"m.s-1","parameterCategory":1,"la1":30.2991,"la2":30.254,"lo1":-89.0895,"lo2":-89.0444,"dy":0.0017,"dx":0.0017,"nx":28,"ny":28,"refTime":"2025-08-03T09:00:00:Z","depth":0,"parameterNumber":2,"parameterNumberName":"U-component_of_WINDS"},"data":[0,0,0,0,0,0,0,0,0,0,0,0,0,0,0,0,0,0,0,0,0,0,0,0,0,0,0,0,0,0,0,0,0,0,0,0,0,0,0,0,0,0,0,0,0,0,0,0,0,0,0,0,0,0,0,0,0,0,-1.0703,-1.0703,0,-1.0712,-1.0712,-1.0712,-1.0658,-1.0657,-1.0655,-1.0654,-1.0665,-1.0667,-1.0669,0,0,0,0,0,0,0,0,0,0,0,0,0,-1.0637,-1.0638,-1.0703,-1.0703,-1.0703,-1.0712,-1.0712,-1.0712,-1.0658,-1.0657,-1.0655,-1.0653,-1.0665,-1.0667,-1.0669,0,0,0,0,0,0,0,0,0,0,0,0,0,-1.0658,-1.0639,-1.0702,-1.0677,-1.0675,-1.0712,-1.0712,-1.0713,-1.0659,-1.0657,-1.0654,-1.0652,-1.0664,-1.0667,-1.0669,-1.0732,0,0,-1.0677,-1.0679,0,0,0,0,0,0,0,0,-1.0657,-1.0661,-1.0681,-1.0679,-1.0676,-1.0682,-1.0693,-1.0719,-1.0659,-1.0665,-1.0654,-1.0651,-1.0673,-1.0675,-1.0682,-1.0733,-1.0734,-1.0678,-1.0679,-1.068,-1.0681,0,0,0,0,0,0,0,-1.0656,-1.066,-1.0706,-1.0681,-1.0678,-1.0665,-1.0665,-1.0698,-1.0682,-1.0664,-1.066,-1.0662,-1.0671,-1.0679,-1.0681,-1.0734,-1.0678,-1.068,-1.0682,-1.0683,-1.0834,-1.0836,0,0,0,0,0,0,-1.0657,-1.0659,-1.0706,-1.0707,-1.0661,-1.0668,-1.0668,-1.0682,-1.0681,-1.0679,-1.0664,-1.066,-1.0676,-1.0678,-1.0682,-1.0753,-1.068,-1.0683,-1.0684,-1.0831,-1.0834,-1.0837,0,0,0,0,0,0,-1.0656,-1.0662,-1.0706,-1.0682,-1.0686,-1.0671,-1.0688,-1.0684,-1.0692,-1.0681,-1.0678,-1.0675,-1.0674,-1.0678,-1.0719,-1.0753,-1.0684,-1.0686,-1.0828,-1.0832,-1.0836,-1.0898,0,0,0,0,0,0,-1.0655,-1.0662,-1.0686,-1.0683,-1.0688,-1.0744,-1.069,-1.0686,-1.0696,-1.069,-1.0691,-1.0689,-1.0673,-1.0716,-1.0722,-1.0755,-1.0689,-1.0825,-1.083,-1.0834,-1.0893,-1.0903,-1.0912,0,0,0,0,0,-1.0652,-1.0705,-1.0688,-1.0694,-1.0718,-1.0746,-1.0749,-1.0728,-1.0699,-1.0723,-1.0716,-1.0689,-1.0748,-1.072,-1.0727,-1.0762,-1.0823,-1.0829,-1.0834,-1.0888,-1.0901,-1.0912,0,0,0,0,0,0,-1.0714,-1.0704,-1.0685,-1.0738,-1.0743,-1.0736,-1.0766,-1.0743,-1.0757,-1.0751,-1.0726,-1.0726,-1.0771,-1.0771,-1.074,-1.0821,-1.078,-1.0788,-1.082,-1.0832,-1.0841,-1.084,-1.0691,0,0,0,0,0,-1.0733,-1.0757,-1.0747,-1.0794,-1.0797,-1.0781,-1.0793,-1.0776,-1.0781,-1.0783,-1.0779,-1.0785,-1.0804,-1.0818,-1.0836,-1.0892,-1.089,-1.0919,-1.0929,-1.0937,-1.0943,-1.097,-1.0981,-1.0855,-1.0855,-1.0855,0,0,-1.0775,-1.0772,-1.0788,-1.0806,-1.0808,-1.0832,-1.0784,-1.0812,-1.083,-1.0788,-1.0826,-1.0823,-1.0827,-1.0876,-1.0897,-1.0877,-1.0977,-1.0944,-1.095,-1.0952,-1.0976,-1.0988,-1.0999,-1.0858,-1.0858,-1.0857,0,0,-1.0861,-1.0862,-1.09,-1.0902,-1.0905,-1.0894,-1.0903,-1.0899,-1.0895,-1.0933,-1.0901,-1.0921,-1.0957,-1.096,-1.0966,-1.1051,-1.1026,-1.1058,-1.1108,-1.1134,-1.1144,-1.1153,-1.1181,-1.1191,-1.1064,-1.1064,-1.1064,0,-1.0912,-1.0946,-1.0923,-1.0952,-1.096,-1.0922,-1.0959,-1.0963,-1.0972,-1.0978,-1.0955,-1.0996,-1.0997,-1.1044,-1.1064,-1.1071,-1.1079,-1.1057,-1.1145,-1.1153,-1.1161,-1.1187,-1.1198,-1.1068,-1.1067,-1.1067,-1.1066,0,-1.1007,-1.1032,-1.1062,-1.1069,-1.1081,-1.1115,-1.1095,-1.111,-1.1092,-1.1082,-1.1119,-1.1119,-1.1134,-1.1144,-1.1128,-1.1188,-1.1175,-1.1149,-1.1108,-1.1177,-1.1201,-1.1211,-1.1073,-1.1072,-1.107,-1.107,0,0,-1.1134,-1.1126,-1.1137,-1.1138,-1.1138,-1.1156,-1.1187,-1.1201,-1.1212,-1.122,-1.1244,-1.1273,-1.1247,-1.1255,-1.1238,-1.1262,-1.1325,-1.1232,-1.1232,-1.1248,-1.1389,-1.1407,-1.1419,-1.1309,-1.1311,-1.1312,-1.1387,0,-1.1216,-1.1268,-1.1246,-1.1299,-1.132,-1.1283,-1.1309,-1.1312,-1.1303,-1.132,-1.131,-1.133,-1.1297,-1.13,-1.1322,-1.1313,-1.1353,-1.1308,-1.133,-1.1331,-1.1328,-1.1432,-1.1452,-1.1523,-1.1397,-1.1399,-1.14,0,-1.132,-1.1329,-1.1384,-1.1376,-1.1384,-1.1408,-1.1417,-1.1434,-1.1435,-1.1427,-1.1433,-1.1411,-1.1439,-1.1399,-1.1437,-1.1407,-1.1414,-1.1411,-1.1414,-1.1414,-1.1369,-1.1433,-1.1546,-1.1556,-1.1415,-1.1414,-1.1413,0,-1.1404,-1.143,-1.1465,-1.1468,-1.146,-1.1478,-1.1476,-1.1474,-1.1483,-1.1491,-1.1496,-1.1508,-1.1514,-1.1524,-1.1504,-1.1477,-1.1545,-1.1503,-1.1537,-1.1538,-1.1553,-1.1552,-1.1666,-1.1561,-1.1561,-1.1561,-1.156,0,-1.1497,-1.1532,-1.1502,-1.1523,-1.156,-1.1534,-1.1572,-1.1566,-1.1564,-1.1583,-1.1553,-1.1571,-1.1545,-1.1561,-1.1547,-1.1579,-1.1583,-1.1576,-1.1572,-1.1578,-1.1578,-1.1582,-1.1575,-1.1563,-1.1563,-1.1562,-1.1562,0,-1.1597,-1.1578,-1.1614,-1.1603,-1.1601,-1.1628,-1.1619,-1.1638,-1.1626,-1.1651,-1.1655,-1.1637,-1.1654,-1.1636,-1.1652,-1.1642,-1.1685,-1.1674,-1.1684,-1.168,-1.1715,-1.1711,-1.1834,-1.1848,-1.1736,-1.1737,-1.1738,0,-1.1656,-1.1682,-1.1672,-1.1682,-1.1681,-1.1698,-1.1706,-1.1681,-1.1691,-1.1692,-1.171,-1.1724,-1.1734,-1.1762,-1.1751,-1.1762,-1.175,-1.1792,-1.1752,-1.1756,-1.1748,-1.1746,-1.1747,-1.18,-1.1802,-1.1803,-1.1804,0,-1.1764,-1.1753,-1.1765,-1.1773,-1.1782,-1.1788,-1.1791,-1.1801,-1.1775,-1.1787,-1.1803,-1.181,-1.1825,-1.1839,-1.1846,-1.1844,-1.1819,-1.1817,-1.1825,-1.1831,-1.1834,-1.183,-1.1705,-1.1814,-1.1813,-1.1812,-1.1811,-1.1811,-1.1844,-1.1863,-1.1858,-1.1872,-1.1871,-1.1874,-1.1891,-1.188,-1.1893,-1.1902,-1.1887,-1.1906,-1.1904,-1.1911,-1.1911,-1.1926,-1.1907,-1.192,-1.1923,-1.1926,-1.1929,-1.1833,-1.1927,-1.1927,-1.1927,-1.1926,-1.1926,0,-1.1947,-1.1942,-1.1954,-1.1958,-1.1969,-1.1943,-1.1945,-1.1955,-1.1972,-1.1972,-1.1981,-1.1998,-1.201,-1.1999,-1.2009,-1.2022,-1.2011,-1.2025,-1.2023,-1.2022,-1.1947,-1.1937,-1.2034,-1.2034,-1.2034,-1.2034,-1.2034,-1.2034,-1.2002,-1.2032,-1.202,-1.2049,-1.2044,-1.2061,-1.2064,-1.2066,-1.2065,-1.2085,-1.2094,-1.2086,-1.2081,-1.2089,-1.2099,-1.2095,-1.2099,-1.2118,-1.211,-1.2039,-1.2028,-1.2018,-1.2009,-1.2119,-1.2119,-1.2184,-1.2184,-1.2185]},{"header":{"parameterUnit":"m.s-1","parameterCategory":1,"la1":30.2991,"la2":30.254,"lo1":-89.0895,"lo2":-89.0444,"dy":0.0017,"dx":0.0017,"nx":28,"ny":28,"refTime":"2025-08-03T09:00:00:Z","depth":0,"parameterNumber":3,"parameterNumberName":"V-component_of_WINDS"},"data":[0,0,0,0,0,0,0,0,0,0,0,0,0,0,0,0,0,0,0,0,0,0,0,0,0,0,0,0,0,0,0,0,0,0,0,0,0,0,0,0,0,0,0,0,0,0,0,0,0,0,0,0,0,0,0,0,0,0,-2.4467,-2.4466,0,-2.4369,-2.4368,-2.4367,-2.4291,-2.4291,-2.429,-2.4289,-2.4185,-2.4183,-2.418,0,0,0,0,0,0,0,0,0,0,0,0,0,-2.4584,-2.4582,-2.4468,-2.4466,-2.4465,-2.4369,-2.4368,-2.4367,-2.4291,-2.4291,-2.429,-2.4289,-2.4185,-2.4183,-2.418,0,0,0,0,0,0,0,0,0,0,0,0,0,-2.4514,-2.4582,-2.4468,-2.4416,-2.4411,-2.437,-2.4368,-2.4366,-2.4292,-2.4291,-2.429,-2.4289,-2.4186,-2.4183,-2.418,-2.4181,0,0,-2.417,-2.4169,0,0,0,0,0,0,0,0,-2.4518,-2.451,-2.4425,-2.442,-2.4413,-2.4342,-2.4371,-2.4304,-2.4292,-2.4337,-2.4289,-2.4288,-2.4237,-2.423,-2.4214,-2.4176,-2.4172,-2.417,-2.4168,-2.4167,-2.4166,0,0,0,0,0,0,0,-2.4523,-2.4514,-2.4428,-2.4424,-2.4417,-2.4396,-2.4385,-2.4358,-2.4294,-2.4333,-2.4327,-2.4317,-2.4234,-2.4217,-2.4211,-2.417,-2.417,-2.4167,-2.4165,-2.4164,-2.4124,-2.4124,0,0,0,0,0,0,-2.4537,-2.4519,-2.4432,-2.4426,-2.4464,-2.4395,-2.4382,-2.4366,-2.4294,-2.4282,-2.4318,-2.4313,-2.4223,-2.4215,-2.4207,-2.42,-2.4167,-2.4164,-2.4162,-2.4123,-2.4124,-2.4125,0,0,0,0,0,0,-2.454,-2.453,-2.4436,-2.447,-2.4457,-2.4394,-2.4376,-2.4364,-2.4347,-2.4283,-2.4271,-2.4312,-2.4222,-2.4211,-2.4187,-2.4196,-2.4162,-2.4159,-2.4122,-2.4123,-2.4124,-2.419,0,0,0,0,0,0,-2.4543,-2.4531,-2.4533,-2.4471,-2.4455,-2.442,-2.4376,-2.4363,-2.4342,-2.4336,-2.4275,-2.4263,-2.422,-2.4192,-2.4184,-2.4191,-2.4157,-2.4121,-2.4122,-2.4124,-2.4186,-2.4193,-2.4198,0,0,0,0,0,-2.4548,-2.4555,-2.4534,-2.4523,-2.4456,-2.4421,-2.4411,-2.4363,-2.4343,-2.4343,-2.4301,-2.4265,-2.4196,-2.4191,-2.4181,-2.4186,-2.412,-2.4122,-2.4124,-2.4184,-2.4192,-2.4198,0,0,0,0,0,0,-2.4619,-2.4546,-2.4521,-2.4509,-2.4472,-2.4408,-2.4407,-2.4374,-2.434,-2.4335,-2.4275,-2.4261,-2.4243,-2.4212,-2.4207,-2.4181,-2.4153,-2.4153,-2.4202,-2.4209,-2.4215,-2.4222,-2.4154,0,0,0,0,0,-2.4634,-2.4613,-2.455,-2.4545,-2.4528,-2.4471,-2.4453,-2.4419,-2.4377,-2.436,-2.4317,-2.4276,-2.4244,-2.4225,-2.4193,-2.4181,-2.4165,-2.418,-2.4186,-2.4191,-2.4192,-2.4179,-2.4184,-2.4131,-2.4131,-2.4131,0,0,-2.4663,-2.4621,-2.4611,-2.4558,-2.4525,-2.4502,-2.4458,-2.4436,-2.4418,-2.4357,-2.4331,-2.4297,-2.4247,-2.4229,-2.4218,-2.4202,-2.4202,-2.4194,-2.4199,-2.4196,-2.4181,-2.4186,-2.4191,-2.4132,-2.4132,-2.4132,0,0,-2.4705,-2.4672,-2.4663,-2.4631,-2.4581,-2.4542,-2.454,-2.4481,-2.4456,-2.443,-2.4382,-2.4358,-2.4307,-2.4272,-2.4248,-2.4273,-2.4237,-2.4264,-2.4295,-2.4283,-2.4287,-2.4291,-2.4297,-2.43,-2.4264,-2.4265,-2.4265,0,-2.4747,-2.4713,-2.4662,-2.4643,-2.4619,-2.4563,-2.4552,-2.4522,-2.4464,-2.4448,-2.4432,-2.4363,-2.4326,-2.4296,-2.4302,-2.4285,-2.4278,-2.427,-2.4291,-2.4294,-2.4296,-2.4301,-2.4304,-2.4268,-2.4268,-2.4267,-2.4267,0,-2.4766,-2.4743,-2.4741,-2.4687,-2.4663,-2.4648,-2.4592,-2.4574,-2.4541,-2.4503,-2.4474,-2.4427,-2.4383,-2.4374,-2.4342,-2.4338,-2.4329,-2.4303,-2.4273,-2.4306,-2.4309,-2.4311,-2.4273,-2.4272,-2.4271,-2.427,0,0,-2.4851,-2.4767,-2.4767,-2.474,-2.468,-2.466,-2.4641,-2.4598,-2.4582,-2.4543,-2.4523,-2.4479,-2.4453,-2.4425,-2.4388,-2.4378,-2.4397,-2.4352,-2.435,-2.436,-2.4386,-2.4405,-2.4408,-2.4373,-2.4373,-2.4373,-2.4389,0,-2.4881,-2.4845,-2.4797,-2.4776,-2.4752,-2.4697,-2.4679,-2.4639,-2.4603,-2.4574,-2.4533,-2.4502,-2.4472,-2.4454,-2.4442,-2.4397,-2.4401,-2.4396,-2.4351,-2.435,-2.4364,-2.441,-2.4431,-2.4448,-2.439,-2.439,-2.4391,0,-2.4912,-2.4876,-2.4853,-2.4792,-2.478,-2.4765,-2.472,-2.4696,-2.4647,-2.4621,-2.4589,-2.4548,-2.4521,-2.4496,-2.4456,-2.4453,-2.4432,-2.4406,-2.4406,-2.4398,-2.4371,-2.4402,-2.4453,-2.4455,-2.4393,-2.4393,-2.4392,0,-2.4972,-2.4918,-2.4897,-2.4876,-2.4805,-2.4795,-2.4765,-2.4716,-2.4692,-2.4652,-2.4635,-2.4593,-2.4569,-2.4535,-2.4482,-2.4469,-2.4447,-2.4418,-2.4421,-2.4423,-2.4418,-2.4419,-2.4465,-2.4408,-2.4408,-2.4408,-2.4408,0,-2.501,-2.4997,-2.4922,-2.4909,-2.4892,-2.4836,-2.4819,-2.4784,-2.474,-2.4716,-2.4665,-2.4644,-2.4577,-2.4546,-2.4504,-2.4475,-2.4466,-2.4441,-2.443,-2.4445,-2.4448,-2.4429,-2.4425,-2.4409,-2.4408,-2.4408,-2.4408,0,-2.5074,-2.5024,-2.4996,-2.4931,-2.4914,-2.4904,-2.4847,-2.483,-2.479,-2.476,-2.475,-2.4686,-2.4647,-2.4592,-2.4535,-2.4507,-2.4483,-2.4467,-2.45,-2.4493,-2.4499,-2.4498,-2.4532,-2.4533,-2.4479,-2.4479,-2.448,0,-2.5101,-2.509,-2.5023,-2.5004,-2.4976,-2.4946,-2.4922,-2.4865,-2.4841,-2.4783,-2.4772,-2.4729,-2.4692,-2.4631,-2.4578,-2.4534,-2.4514,-2.4529,-2.4507,-2.4521,-2.4511,-2.4512,-2.4508,-2.4534,-2.4535,-2.4536,-2.4536,0,-2.5152,-2.5127,-2.5095,-2.5053,-2.5025,-2.4989,-2.495,-2.4937,-2.4871,-2.4846,-2.4806,-2.4777,-2.4719,-2.4676,-2.4624,-2.4589,-2.455,-2.4544,-2.4541,-2.4556,-2.4575,-2.4562,-2.4512,-2.4543,-2.4542,-2.4542,-2.4541,-2.4541,-2.5196,-2.5183,-2.5133,-2.5098,-2.5063,-2.5027,-2.5007,-2.4964,-2.4931,-2.488,-2.4848,-2.4808,-2.4756,-2.4682,-2.4649,-2.4615,-2.4599,-2.4598,-2.4596,-2.4596,-2.46,-2.4582,-2.4605,-2.4605,-2.4605,-2.4605,-2.4604,0,-2.5243,-2.5208,-2.5176,-2.5123,-2.5095,-2.5063,-2.5017,-2.4994,-2.4961,-2.4917,-2.4881,-2.4832,-2.4789,-2.4732,-2.4684,-2.4668,-2.4648,-2.4657,-2.4656,-2.4648,-2.4618,-2.4624,-2.4673,-2.4673,-2.4673,-2.4673,-2.4673,-2.4673,-2.5263,-2.5238,-2.5207,-2.5162,-2.5126,-2.5088,-2.5065,-2.503,-2.4994,-2.4943,-2.4907,-2.4871,-2.482,-2.4767,-2.4725,-2.4709,-2.4692,-2.4706,-2.4684,-2.4657,-2.4651,-2.4645,-2.4649,-2.4703,-2.4703,-2.4716,-2.4716,-2.4716]}]]